Simultaneous Nadir Overpasses (SNOs) Predictions

Prediction of SNOs between NOAA-20 and TERRA Satellite Orbit:

Table of predicted SNOs for the next 14.0 days since TLE Epoch: 8/24/2024
Index Date (NOAA-20) Time (NOAA-20) Lat,Lon (NOAA-20) SZA (NOAA-20 ) Date (TERRA) Time (TERRA) Lat,Lon (TERRA) SZA (TERRA ) Distance(km) Time Diff (sec)
1 08/26/2024 10:01:46 72.50, 21.67 62.45 08/26/2024 10:02:03 72.49, 21.62 62.43 2.47 17
2 08/26/2024 10:52:28 -72.39,-170.79 117.67 08/26/2024 10:51:26 -72.41,-170.87 117.64 3.23 62
3 08/28/2024 21:14:09 72.54,-146.49 63.34 08/28/2024 21:14:52 72.56,-146.51 63.35 2.10 43
4 08/28/2024 22:04:52 -72.47, 20.95 116.72 08/28/2024 22:04:15 -72.48, 21.01 116.71 2.26 37
5 08/31/2024 08:26:32 72.58, 45.32 64.27 08/31/2024 08:27:41 72.57, 45.28 64.24 1.88 69
6 08/31/2024 09:17:15 -72.51,-147.23 115.80 08/31/2024 09:17:04 -72.50,-147.19 115.81 1.74 11
7 08/31/2024 10:07:44 71.67, 21.70 63.31 08/31/2024 10:06:38 71.73, 19.13 63.50 89.68 66
8 09/02/2024 19:39:10 73.40,-124.52 66.05 09/02/2024 19:40:15 73.34,-121.49 65.84 96.63 65
9 09/02/2024 20:29:37 -72.52, 44.67 114.91 09/02/2024 20:29:52 -72.53, 44.62 114.90 2.20 15
10 09/02/2024 21:20:21 72.45,-147.88 65.04 09/02/2024 21:19:13 72.45,-147.86 65.05 0.69 68
11 09/05/2024 07:42:00 -72.58,-123.56 113.93 09/05/2024 07:42:39 -72.56,-123.56 113.97 2.78 39
12 09/05/2024 08:32:43 72.47, 43.99 65.96 09/05/2024 08:32:00 72.47, 43.94 65.97 1.52 43



Historial Predications of SNOs between NOAA-20 and TERRA
